Location: Clifton Park
(41.4873°N, 81.8024°W)
Time: 09:41:48
(UTC+00:00)

PAYLOAD B - Pass Details

Date: 21 January 2020
Orbit: 849 x 871 km, 99.1° (Epoch: 27 February)

Event Time Altitude Azimuth Distance (km) Brightness Sun altitude
Rises 11:16:43 0° 11° (N) 3,468 7.4 -17.0°
Reaches altitude 10° 11:19:07 10° 8° (N) 2,527 6.6 -16.6°
Maximum altitude 11:24:41 66° 288° (WNW) 949 4.2 -15.6°
Drops below altitude 10° 11:30:12 10° 207° (SSW) 2,509 6.5 -14.6°
Sets 11:32:35 0° 205° (SSW) 3,442 7.3 -14.1°
